Simultaneous Nadir Overpasses (SNOs) Predictions

Prediction of SNOs between GOES-15 and NPP Satellite Orbit:

Table of predicted SNOs for the next 14.0 days since TLE Epoch: 5/18/2012
Index Date Time (GOES-15) GOES-15 Lat,Lon NPP Lat,Lon Distance(km) Time Diff (sec)
1 05/19/2012 10:42:04 -0.03,-135.45 0.91,-139.81 496.09 80
2 05/20/2012 10:25:57 -0.03,-135.46 -0.05,-135.27 21.34 80
3 05/22/2012 22:26:27 0.04,-135.47 -0.11,-136.04 65.27 80
4 05/23/2012 22:10:21 0.03,-135.47 0.92,-131.51 451.74 80
5 05/25/2012 10:29:28 -0.05,-135.46 0.24,-136.77 149.84 80
6 05/26/2012 10:13:22 -0.04,-135.45 -0.79,-132.24 366.69 80
7 05/27/2012 22:32:38 0.06,-135.45 -0.38,-137.55 238.33 80
8 05/28/2012 22:16:31 0.05,-135.45 0.59,-133.00 278.06 80
9 05/30/2012 10:35:37
